Regional Weather Roundup
Issued by NWS

Home | Current Version | Previous Version | Graphics & Text | Print | Product List | Glossary On
Versions: 1 2 3 4 5 6 7 8 9 10 11 12 13 14 15 16 17 18 19 20 21 22 23 24 25 26 27 28 29 30 31 32 33 34 35 36 37 38 39 40 41 42 43 44 45 46 47 48 49 50
000
ASUS43 KLSX 011207
RWRMO

WEATHER SUMMARY FOR MISSOURI
NATIONAL WEATHER SERVICE SPRINGFIELD MO
700 AM CDT WED JUL 01 2015

NOTE: "FAIR" INDICATES FEW OR NO CLOUDS BELOW 12,000 FEET WITH NO
       SIGNIFICANT WEATHER AND/OR OBSTRUCTIONS TO VISIBILITY.
       CURRENT SKY AND/OR WEATHER CONDITIONS ARE NOT AVAILABLE FOR
       CHILLICOTHE AND FARMINGTON.

MOZ001>031-035>038-043-044-053-054-011300-
...NORTHERN AND WESTERN MISSOURI...

CITY           SKY/WX    TMP DP  RH WIND       PRES   REMARKS
KANSAS CTY INT LGT RAIN  68  67  96 SE15      29.86F FOG
6HR MIN TEMP:  68; 6HR MAX TEMP:  73; 6HR PCP:  0.42;

KANSAS C DTWN  LGT RAIN  70  67  90 SW8       29.88F FOG
6HR MIN TEMP:  70; 6HR MAX TEMP:  78; 6HR PCP:  0.78;

LEE`S SUMMIT   RAIN      68  66  93 S9        29.92S FOG
6HR MIN TEMP:  68; 6HR MAX TEMP:  76; 6HR PCP:  1.30;

ST JOSEPH      LGT RAIN  69  67  93 SE14      29.83F FOG
6HR MIN TEMP:  69; 6HR MAX TEMP:  75; 6HR PCP:  0.31;

CHILLICOTHE      N/A     70  68  93 CALM      29.88S
6HR MIN TEMP:  69; 6HR MAX TEMP:  72; 6HR PCP:  0.09;

KIRKSVILLE     CLOUDY    69  69 100 E3        29.90F FOG
6HR MIN TEMP:  67; 6HR MAX TEMP:  70; 6HR PCP:  0.10;


$$
MOZ066>068-077>081-088>096-101>105-011300-
...SOUTHWEST MISSOURI...

CITY           SKY/WX    TMP DP  RH WIND       PRES   REMARKS
SPRINGFIELD    CLOUDY    68  64  87 SE13      29.95F
6HR MIN TEMP:  68; 6HR MAX TEMP:  77; 6HR PCP:  0.25;

JOPLIN         CLOUDY    79  71  76 SW15      29.89S
6HR MIN TEMP:  79; 6HR MAX TEMP:  80;


$$
MOZ032>034-039>042-045>050-055>058-069>072-011300-
...CENTRAL MISSOURI...

CITY           SKY/WX    TMP DP  RH WIND       PRES   REMARKS
COLUMBIA       RAIN      69  67  93 SW12      29.94R FOG
6HR MIN TEMP:  69; 6HR MAX TEMP:  74; 6HR PCP:  0.19;

JEFFERSON CITY RAIN      69  67  93 CALM      29.94S FOG
6HR MIN TEMP:  69; 6HR MAX TEMP:  75; 6HR PCP:  0.30;

ROLLA          RAIN      68  68 100 S6        29.95F FOG
6HR MIN TEMP:  68; 6HR MAX TEMP:  73; 6HR PCP:  0.55;

SEDALIA        LGT RAIN  69  67  93 S12       29.93F FOG
6HR MIN TEMP:  69; 6HR MAX TEMP:  75; 6HR PCP:  2.09;

WHITEMAN AFB   DRIZZLE   69  69  99 S10       29.90F
WARRENSBURG    LGT RAIN  68  66  94 SE8       29.91F
OSAGE BEACH    CLOUDY    70  66  88 S7        29.97R

$$
MOZ051-052-059>065-011300-
...EAST CENTRAL MISSOURI...

CITY           SKY/WX    TMP DP  RH WIND       PRES   REMARKS
ST LOUIS INTL  CLOUDY    73  68  83 SW8       29.90F HAZE
6HR MIN TEMP:  73; 6HR MAX TEMP:  76; 6HR PCP:  0.07;

SPIRIT OF STL  CLOUDY    70  70 100 S6        29.90F FOG
6HR MIN TEMP:  70; 6HR MAX TEMP:  73; 6HR PCP:  0.06;

ST CHARLES     CLOUDY    71  69  93 CALM      29.90S FOG
6HR MIN TEMP:  71; 6HR MAX TEMP:  73; 6HR PCP:  0.04;


$$
MOZ072>076-082>087-097>100-106>115-011300-
...SOUTH CENTRAL AND SOUTHEAST MISSOURI...

CITY           SKY/WX    TMP DP  RH WIND       PRES   REMARKS
CAPE GIRARDEAU LGT RAIN  74  72  93 N3        29.93R
6HR MIN TEMP:  73; 6HR MAX TEMP:  75; 6HR PCP:  0.02;

FARMINGTON     CLOUDY    70  66  88 CALM      29.99F
6HR MIN TEMP:  70; 6HR MAX TEMP:  72; 6HR PCP:  0.15;

POPLAR BLUFF   TSTM      75  72  90 CALM      29.91S
6HR MIN TEMP:  74; 6HR MAX TEMP:  77; 6HR PCP: TRACE;

WEST PLAINS    LGT RAIN  71  67  87 MISG      30.04R
6HR MIN TEMP:  71; 6HR MAX TEMP:  75; 6HR PCP:  0.14;


$$



USA.gov is the U.S. government's official web portal to all federal, state and local government web resources and services.